This is the latest recevied weather packets stored in our database for station/object N3FAA. If no packets are shown the sender has not sent any weather packets the latest 10 day(s).
| Time | Temp. | Humidity | Pressure | Rain* | Wind** | Luminosity | Snow |
|---|---|---|---|---|---|---|---|
| 1777465621 | 8.33° C | 76% | 1015 hPa | 0 mm | - | 0 W/m² | - |
| 1777465316 | 7.78° C | 76% | 1014.9 hPa | 0 mm | - | 0 W/m² | - |
| 1777465010 | 8.33° C | 76% | 1015 hPa | 0 mm | - | 0 W/m² | - |
| 1777464706 | 7.78° C | 76% | 1014.9 hPa | 0 mm | - | 0 W/m² | - |
| 1777464403 | 8.33° C | 75% | 1014.8 hPa | 0 mm | - | 0 W/m² | - |
| 1777464098 | 8.33° C | 76% | 1015 hPa | 0 mm | - | 0 W/m² | - |
| 1777463792 | 8.33° C | 76% | 1014.8 hPa | 0 mm | - | 0 W/m² | - |
| 1777463488 | 8.89° C | 75% | 1014.6 hPa | 0 mm | - | 0 W/m² | - |
| 1777463184 | 8.89° C | 75% | 1015 hPa | 0 mm | - | 0 W/m² | - |
| 1777462880 | 8.89° C | 75% | 1014.8 hPa | 0 mm | - | 0 W/m² | - |
| 1777462576 | 9.44° C | 74% | 1014.7 hPa | 0 mm | - | 0 W/m² | - |
| 1777462272 | 8.89° C | 74% | 1015 hPa | 0 mm | - | 0 W/m² | - |
| 1777461967 | 9.44° C | 72% | 1014.6 hPa | 0 mm | - | 0 W/m² | - |
| 1777461665 | 9.44° C | 73% | 1014.8 hPa | 0 mm | - | 0 W/m² | - |
| 1777461365 | 8.33° C | 75% | 1014.7 hPa | 0 mm | - | 0 W/m² | - |
| 1777461061 | 8.89° C | 74% | 1014.7 hPa | 0 mm | - | 0 W/m² | - |
| 1777460757 | 8.89° C | 73% | 1014.7 hPa | 0 mm | - | 0 W/m² | - |
| 1777460453 | 9.44° C | 72% | 1014.6 hPa | 0 mm | - | 0 W/m² | - |
| 1777460148 | 10° C | 71% | 1014.6 hPa | 0 mm | - | 0 W/m² | - |
| 1777459846 | 10° C | 70% | 1014.6 hPa | 0 mm | - | 0 W/m² | - |
| 1777459543 | 10.56° C | 69% | 1014.5 hPa | 0 mm | - | 0 W/m² | - |
| 1777459240 | 10.56° C | 67% | 1014.6 hPa | 0 mm | - | 0 W/m² | - |
| 1777458938 | 10.56° C | 68% | 1014.6 hPa | 0 mm | - | 0 W/m² | - |
| 1777458634 | 10° C | 70% | 1014.5 hPa | 0 mm | - | 0 W/m² | - |
| 1777458331 | 10° C | 72% | 1014.5 hPa | 0 mm | - | 0 W/m² | - |
* Rain latest hour (hover to see other rain measurements)
** Current wind speed in m/s (hover to see current wind gust speed)